sat.trackr.live / text

‹ back to catalog

STARLINK-2112

NORAD 47391 · 2021-005AU

PAYLOAD ACTIVE UNKNOWN

§ Identity

Operator
Country
US
Launch date
2021-01-20
Launch site
AFETR
Launch vehicle
Mass (kg)
RCS (m²)

Purposes: comms

External: N2YO · Heavens-Above · Gunter

§ Orbital elements

Epoch: 2026-05-25T03:46:24.487968Z

Period
95.30 min
Inclination
53.0681°
Eccentricity
0.0002388
Mean motion
15.10977874 rev/d
Perigee alt
531.6 km
Apogee alt
534.9 km
Semi-major
6,911.4 km
B*
9.1215e-4
RAAN
47.0402°
Arg perigee
99.8082°
Mean anomaly
260.3179°
Rev number
29,500

§ Raw data

STARLINK-21121 47391U 21005AU  26145.15722787  .00015137  00000+0  91215-3 0  99962 47391  53.0681  47.0402 0002388  99.8082 260.3179 15.10977874295006

JSON: /api/v1/satellites/47391 · /tle

For live sub-satellite position, see the globe view (requires WebGL).

§ Visibility from observer

Set your observer location to see the next 7 days of passes ≥ 10°. The values pass through the URL so the page stays shareable.

No JS? Fill the form by hand. The geolocation button needs JavaScript.